GFSSW_sfc_thetae_144.txt.gz
Theta_e
320 319 321 321 320 321 324 325 327 328 328 326 323 321 320 324 322 317 315 321 324 327 324 311 310 311 311 306 308 306 303 300 301 300 305 305 306 306 308 310 314 318 314 321 332
320 319 320 321 321 320 323 325 325 327 327 325 322 322 322 323 313 314 326 330 330 328 312 308 304 307 306 306 304 305 303 302 303 304 302 303 307 306 306 309 309 313 320 327 329
319 319 319 321 321 320 322 324 325 325 326 324 323 322 324 319 312 313 328 329 330 325 313 308 308 306 304 305 303 302 302 302 302 303 303 302 303 306 306 305 311 310 317 324 325
317 318 319 320 320 320 321 323 324 325 325 325 323 323 321 319 298 315 329 330 330 317 309 307 306 304 304 300 303 299 300 301 302 302 301 301 303 302 305 310 307 313 320 325 324
317 316 317 319 320 320 321 322 323 325 325 325 326 324 316 306 309 315 321 330 325 315 314 307 304 304 302 305 302 300 300 301 301 300 301 301 301 302 303 309 309 313 321 323 326
316 315 315 316 317 319 320 320 321 323 324 324 325 320 312 305 316 314 315 324 322 318 316 310 306 308 302 302 305 306 301 300 299 300 301 300 301 300 305 308 309 314 318 322 324
315 315 315 316 316 316 319 320 321 320 324 326 325 320 309 310 314 312 317 315 316 316 314 319 313 311 308 300 303 301 298 300 299 299 300 302 299 299 306 306 308 312 316 320 323
315 315 315 314 315 316 314 320 320 319 322 325 325 314 304 309 314 313 311 308 309 310 314 313 314 310 309 307 299 297 300 296 304 300 300 300 299 302 305 305 306 311 315 318 322
314 314 315 314 314 315 314 315 320 319 320 324 317 308 303 313 308 312 311 307 306 307 309 311 311 304 302 300 294 293 296 298 300 300 299 298 300 301 303 303 305 308 313 317 319
313 313 313 314 314 313 312 314 319 319 319 319 312 303 301 302 310 308 308 309 304 305 303 305 303 298 297 298 292 291 292 294 298 298 296 296 297 302 299 301 304 306 309 314 317
312 312 312 313 314 311 310 312 307 304 310 304 302 306 302 305 307 304 307 305 304 305 297 301 299 295 296 298 299 298 293 295 295 298 296 298 299 302 305 299 300 304 305 309 314
311 310 311 312 311 311 310 298 306 308 301 308 305 306 302 307 301 301 306 302 299 297 299 295 296 302 302 300 294 292 290 293 295 294 295 297 295 299 301 301 301 302 303 305 308
310 310 311 312 310 307 304 302 309 313 300 302 303 301 299 303 301 298 303 301 300 295 296 296 298 299 297 296 293 289 290 291 294 292 294 293 293 295 298 299 300 300 302 304 304
310 310 311 310 303 305 300 306 309 313 291 293 296 301 299 302 298 304 305 303 298 295 296 297 297 295 295 294 297 291 293 294 291 290 289 291 290 295 296 297 297 299 301 301 302
310 310 310 308 304 300 303 307 307 307 279 293 296 304 300 299 296 295 302 298 295 294 296 294 291 292 292 294 296 295 294 292 291 290 288 290 287 293 293 293 296 299 301 303 304
309 310 310 307 304 304 307 306 303 286 280 287 294 293 293 294 297 296 295 298 298 294 296 291 294 295 296 296 296 292 291 290 290 289 285 290 288 291 293 295 298 301 302 302 304
309 309 308 307 297 306 305 293 281 281 287 284 288 293 292 289 292 294 291 290 290 287 289 288 289 291 294 291 293 293 291 283 282 283 283 285 285 291 295 297 297 299 301 302 302
309 308 306 305 306 304 296 285 275 285 286 290 290 292 288 289 291 292 291 289 292 295 291 288 284 289 292 293 290 291 292 286 280 280 285 283 283 290 296 299 300 298 299 299 298
307 304 303 304 305 301 289 279 281 286 289 288 289 287 287 288 289 290 289 289 293 293 291 289 286 290 291 291 294 290 288 293 283 277 282 286 288 292 295 295 296 296 297 298 300
299 297 298 305 302 296 285 280 284 289 289 291 285 290 285 285 286 289 289 293 292 292 293 291 284 289 289 293 291 292 293 285 286 280 279 284 284 288 292 294 295 295 297 299 299
298 291 300 304 301 289 280 281 286 292 290 290 289 289 291 286 289 289 289 294 295 291 292 295 289 285 289 288 288 288 287 288 290 286 282 281 287 293 295 294 295 296 296 296 299
295 285 300 302 285 285 283 286 291 288 293 290 294 293 291 291 290 290 289 293 296 293 289 292 288 283 285 290 292 293 290 290 285 282 283 282 286 292 294 296 293 295 295 296 296
291 290 297 298 281 283 286 286 289 288 288 289 291 294 293 291 288 291 292 297 296 293 291 292 288 282 283 287 289 288 289 291 290 287 284 284 288 291 291 291 295 294 296 295 296
291 283 285 287 288 287 284 284 286 291 289 291 290 293 292 290 291 289 290 292 295 294 296 295 288 287 282 285 287 285 287 289 289 286 285 285 289 290 291 292 294 296 296 296 295
288 285 287 282 284 287 287 287 285 286 290 292 289 291 291 288 289 288 289 289 293 295 294 292 286 287 286 289 289 287 286 286 285 288 285 289 289 292 294 294 295 296 296 295 295
285 285 286 286 288 286 287 286 286 288 288 287 288 291 292 289 291 287 290 290 289 292 291 290 288 288 282 285 287 286 288 288 288 289 289 289 289 292 297 296 294 295 295 295 296
290 290 290 287 286 285 286 287 287 290 290 293 292 291 290 292 295 295 295 295 293 291 290 289 286 285 283 285 286 284 286 288 289 291 290 286 291 293 292 292 295 297 294 295 296

GFSSW_sfc_thetae_147.txt.gz
Theta_e
319 321 320 321 321 321 321 321 324 326 327 328 325 324 325 324 324 320 313 321 323 330 323 310 310 311 313 310 311 312 307 304 304 305 307 309 308 310 314 312 315 318 315 324 333
318 320 320 320 321 321 320 321 323 325 326 327 325 324 325 322 316 315 326 332 333 329 317 308 304 308 306 309 307 309 307 307 311 311 308 307 309 309 309 311 312 315 321 330 331
319 320 321 321 321 321 321 318 321 323 325 326 325 323 323 323 312 312 328 330 333 326 314 311 309 306 304 307 308 308 307 311 306 306 306 305 305 310 309 308 313 312 318 327 326
318 318 320 320 320 321 321 320 319 322 324 325 324 322 323 318 300 317 319 331 332 323 319 314 308 304 301 302 305 300 303 306 305 305 304 303 306 305 309 311 312 314 319 325 326
318 318 319 319 320 320 321 320 320 322 323 325 323 323 318 309 308 316 317 318 326 318 314 315 307 304 301 301 303 301 301 303 304 303 303 304 303 304 305 311 312 311 319 322 325
317 317 317 317 319 320 320 320 320 321 323 325 324 323 314 305 321 314 313 318 321 317 314 312 311 308 304 305 302 306 304 303 303 303 303 301 303 302 306 310 310 311 317 321 323
316 317 316 316 317 319 319 319 320 320 321 325 325 318 311 310 324 319 317 315 317 315 315 315 314 309 307 301 305 305 302 302 303 303 302 303 300 300 305 308 307 309 315 318 322
316 316 316 315 316 317 317 319 319 319 319 323 325 318 306 316 320 316 315 312 313 314 312 320 318 311 310 306 302 301 302 300 305 304 303 302 301 309 309 306 306 309 312 316 320
314 315 316 315 315 316 315 315 317 319 319 321 318 312 304 316 313 314 315 309 309 309 312 312 314 308 307 301 301 296 294 297 304 307 307 302 304 311 313 306 305 308 311 313 318
314 314 315 315 315 314 313 313 315 318 316 317 315 307 302 303 313 312 313 310 306 305 304 306 303 298 301 304 294 294 295 298 302 306 304 302 301 308 303 304 305 307 309 312 315
313 314 314 314 314 314 313 310 304 304 308 304 303 304 305 312 311 308 311 306 305 301 295 301 295 293 297 303 306 304 303 302 304 302 298 300 302 304 309 308 304 306 307 309 312
313 313 313 313 314 313 311 302 302 307 298 306 308 307 304 309 301 303 311 302 300 294 299 297 294 301 300 301 300 303 301 301 303 299 297 299 299 304 306 307 309 308 306 307 309
313 312 312 313 312 310 306 303 309 308 297 302 304 304 300 303 302 300 306 304 299 296 298 296 301 307 301 299 298 300 297 299 298 296 297 296 296 300 303 304 307 308 309 307 308
312 311 312 312 306 306 302 305 308 308 290 291 299 302 301 301 299 306 308 303 299 296 301 299 304 302 301 299 300 296 300 302 297 295 294 296 292 301 303 302 301 303 305 306 306
311 311 311 311 303 300 302 308 309 302 278 295 298 306 301 298 299 299 308 304 298 298 299 297 299 298 298 300 302 299 302 299 298 293 293 294 289 297 302 298 300 302 303 306 306
310 311 311 308 307 306 309 307 302 282 278 289 294 294 293 297 297 299 299 301 304 299 299 296 301 299 300 303 303 298 296 294 293 293 287 293 292 293 296 299 301 303 304 306 308
310 310 309 308 299 307 306 299 282 276 288 286 289 293 294 291 294 294 292 290 291 287 289 291 293 297 299 297 300 297 293 286 284 284 285 290 290 294 299 302 302 302 304 305 308
309 309 307 306 308 306 302 288 276 283 285 290 292 292 290 291 291 293 291 288 296 296 292 288 284 291 296 297 294 293 295 288 281 283 287 287 285 292 299 302 303 303 303 303 302
309 307 304 306 307 306 294 278 279 284 286 287 290 288 288 290 291 291 291 291 295 298 292 289 289 294 295 297 297 292 291 299 286 281 284 288 291 296 298 297 298 299 300 301 302
303 301 298 306 306 300 288 281 282 288 287 287 286 290 284 285 289 288 289 295 295 299 301 296 286 291 292 294 296 295 298 288 288 282 280 288 288 290 294 296 298 299 299 301 303
300 293 300 306 304 292 282 283 284 290 290 286 285 289 289 287 291 289 290 295 298 299 301 298 291 286 289 288 289 289 291 292 292 289 284 283 288 297 297 297 297 298 299 300 300
297 287 301 305 286 287 283 286 289 287 291 289 288 286 291 291 291 291 292 296 300 300 293 297 292 283 285 292 293 294 292 292 287 284 286 283 287 295 297 298 296 298 298 298 299
293 290 300 300 282 282 286 286 287 287 288 288 287 291 295 292 289 292 294 299 300 298 294 294 290 283 284 289 290 289 292 294 293 289 285 285 289 293 295 295 296 296 299 298 298
292 284 286 290 292 286 283 285 284 290 289 290 289 290 290 292 296 291 293 296 299 297 298 296 290 289 283 286 289 286 290 292 292 287 288 287 291 293 294 295 297 297 299 299 298
290 286 287 280 283 287 287 286 284 284 289 291 289 289 288 289 290 290 294 294 297 297 295 294 287 289 291 291 290 288 288 288 288 291 287 289 289 294 297 296 297 298 299 298 297
286 286 288 288 288 286 287 286 285 286 288 287 286 290 290 291 293 289 292 292 291 294 292 294 287 288 284 288 289 286 288 289 289 290 291 291 291 298 297 299 299 298 297 297 299
291 293 294 287 287 285 286 286 287 289 291 293 291 290 289 294 299 299 299 297 296 292 291 290 288 286 284 287 287 283 287 288 290 292 291 287 292 297 297 295 297 298 297 296 298

GFSSW_sfc_thetae_150.txt.gz
Theta_e
318 319 321 321 321 321 321 322 323 325 326 328 327 327 327 327 326 319 314 320 322 328 323 318 313 310 309 307 312 312 303 300 302 303 304 307 305 306 309 309 310 314 315 322 330
318 320 319 320 322 321 322 322 322 324 325 327 327 326 326 324 318 315 325 331 334 328 316 316 309 307 303 306 307 304 302 305 310 308 305 306 306 307 306 307 308 312 324 328 328
319 319 319 320 322 322 321 322 321 322 322 325 326 325 324 323 312 314 330 332 332 328 320 314 311 306 302 304 305 304 302 310 306 305 304 304 303 307 304 304 308 309 318 325 325
318 319 319 320 321 321 321 321 320 320 320 322 325 324 323 319 301 317 326 330 331 320 314 311 308 302 300 300 304 299 304 305 305 304 302 302 303 304 304 304 309 307 320 324 322
317 318 319 320 320 321 321 321 321 320 319 323 325 324 319 308 309 317 324 326 325 321 314 308 306 304 300 303 302 299 301 303 303 302 301 302 300 299 300 306 307 308 320 323 322
316 317 318 319 319 319 321 321 321 321 319 321 324 323 313 303 318 317 317 319 319 318 313 312 308 310 306 305 304 303 303 301 302 301 301 299 299 300 301 304 304 306 315 319 322
316 317 317 317 317 318 320 321 320 320 320 319 323 320 310 309 318 317 317 315 315 314 309 313 315 309 308 302 308 308 301 299 300 300 300 300 296 298 301 301 302 305 307 316 320
316 316 316 317 316 317 318 319 320 320 319 320 321 317 305 319 321 319 317 314 315 316 312 314 317 311 305 306 302 300 301 295 302 302 300 299 296 304 303 301 301 302 305 310 316
315 316 316 316 316 317 317 316 318 319 319 319 315 312 304 319 315 318 318 313 312 311 313 316 315 308 306 299 296 298 294 297 301 303 301 297 298 306 308 302 299 300 303 307 311
315 315 315 316 316 316 315 314 314 312 316 315 314 306 306 307 314 314 315 313 307 308 307 307 304 300 299 298 293 293 295 296 298 302 302 296 297 305 300 300 301 300 300 304 310
314 315 315 315 315 315 312 310 302 301 307 301 303 304 305 313 313 310 313 309 307 303 295 301 296 293 296 300 303 301 301 300 303 303 298 297 300 302 305 299 298 299 299 301 306
314 314 315 315 315 314 311 302 303 306 298 306 304 304 306 311 303 306 313 304 302 296 298 294 291 299 301 303 304 302 300 300 303 297 294 295 296 300 301 303 304 302 301 301 303
314 313 314 314 314 310 306 304 309 308 297 300 304 301 303 306 302 303 309 305 299 296 294 289 295 301 300 300 299 297 298 299 298 295 293 291 291 295 299 302 303 305 306 305 303
313 313 313 313 307 307 302 308 308 307 286 291 298 301 301 304 300 308 311 304 299 294 294 293 298 298 298 296 299 295 301 299 297 292 288 292 285 295 299 299 300 303 304 305 304
312 312 313 311 303 300 304 308 306 301 275 294 298 307 302 300 299 301 309 303 295 296 296 291 296 297 296 297 301 298 300 297 296 291 289 289 283 290 297 295 298 299 300 303 306
312 312 311 306 306 305 308 306 301 283 274 289 296 296 295 297 299 300 302 304 303 298 297 298 298 300 299 303 302 301 297 296 291 290 283 288 288 288 293 295 296 298 299 301 302
311 311 308 305 299 308 307 300 280 273 287 287 287 293 294 292 294 296 294 293 292 288 289 293 293 299 300 296 300 295 291 280 280 281 281 287 287 291 296 298 297 298 297 296 301
310 310 307 306 307 306 301 287 271 278 282 288 289 292 290 293 292 293 293 288 295 294 290 286 283 293 295 296 295 293 292 283 277 278 280 281 281 287 296 300 299 297 295 295 293
309 304 302 304 306 304 291 275 273 283 287 286 287 286 289 292 290 291 290 290 294 296 289 286 286 296 295 298 297 291 288 293 282 276 278 282 286 292 295 294 293 293 294 294 296
301 298 298 305 305 298 285 278 281 290 287 287 283 288 285 288 288 288 286 293 293 297 298 293 285 292 292 294 295 294 297 289 285 274 274 281 282 285 290 292 293 293 294 295 296
298 291 300 305 302 291 279 281 285 290 290 287 285 283 287 287 289 287 288 293 296 296 298 295 289 284 289 288 290 287 290 290 289 285 279 278 282 290 292 293 293 292 293 292 293
295 285 300 303 286 286 281 286 289 287 291 289 288 287 285 284 287 289 289 293 298 298 293 296 288 282 285 290 292 294 291 293 286 282 282 281 282 289 291 292 293 292 293 291 292
290 290 300 298 280 281 286 286 287 286 287 287 286 288 289 286 285 290 291 296 298 297 295 294 286 279 281 286 288 289 291 294 291 287 281 279 283 290 291 291 291 290 291 293 292
290 283 288 291 290 284 282 282 282 289 288 288 288 289 288 286 288 287 291 295 298 298 300 296 288 284 279 283 287 284 289 291 291 283 282 285 285 287 289 289 290 290 292 293 293
289 285 287 281 283 285 285 285 282 283 288 289 286 287 286 283 285 287 292 295 297 298 298 293 285 286 286 288 289 287 287 290 288 290 285 288 288 291 290 291 291 292 293 293 292
286 285 287 285 286 284 285 282 282 284 285 284 284 288 288 285 286 287 292 293 292 296 295 294 284 285 281 286 287 284 288 289 290 291 290 291 288 294 295 290 289 292 292 292 293
293 294 289 286 284 282 282 284 284 287 288 289 289 287 288 290 293 293 296 298 295 293 292 289 286 283 279 284 284 280 285 288 289 291 291 287 292 294 292 292 292 293 294 293 293

GFSSW_sfc_thetae_153.txt.gz
Theta_e
319 319 320 321 321 321 321 322 323 325 325 327 328 327 327 328 326 320 311 320 324 330 326 318 314 316 312 307 308 308 298 296 300 300 301 303 301 303 307 308 308 313 313 320 328
319 320 318 319 322 323 321 322 323 323 324 325 328 327 326 326 318 314 325 332 333 329 322 321 309 314 306 304 305 302 298 300 307 305 301 304 303 304 304 304 306 318 325 327 328
319 319 319 320 321 321 322 322 322 322 323 323 326 326 325 323 312 312 328 332 332 327 318 314 312 311 307 306 303 302 299 306 307 302 305 304 302 305 303 300 307 313 321 324 323
319 319 319 320 320 320 322 322 322 322 322 323 324 325 324 319 300 314 329 334 331 322 317 313 308 305 303 303 304 297 303 304 305 303 302 300 302 304 303 304 309 319 324 323 323
317 317 319 320 320 320 321 322 322 321 320 321 323 325 319 311 309 316 326 330 325 316 311 310 308 305 301 301 304 302 303 302 303 302 300 301 299 300 301 305 304 317 324 321 323
317 317 318 319 319 319 320 321 322 321 321 320 322 324 314 304 318 316 319 320 320 313 309 312 310 311 306 305 302 305 306 307 302 300 299 298 297 298 300 302 303 319 320 321 320
316 317 317 318 319 318 318 320 321 321 321 320 319 320 311 307 316 315 318 314 316 315 310 311 314 309 309 303 309 308 304 304 299 298 297 298 295 296 300 299 300 306 316 320 320
316 316 317 317 318 317 317 319 320 321 321 321 318 316 306 320 317 317 315 314 316 316 314 315 314 311 306 307 302 302 302 296 300 299 298 298 296 302 300 299 298 300 305 314 319
315 316 317 317 317 317 317 317 318 319 320 320 313 308 303 319 312 317 316 312 312 314 317 317 316 308 307 300 296 297 293 296 298 300 297 295 294 302 305 298 297 297 300 304 313
315 315 316 316 316 317 316 315 314 312 315 317 313 303 308 307 314 316 316 315 309 311 309 308 306 302 300 298 289 292 294 297 297 299 295 292 293 301 302 299 297 296 297 301 306
315 315 315 316 316 316 313 308 298 296 303 302 301 301 305 313 316 312 313 309 307 306 298 302 297 295 297 300 301 299 297 297 300 304 297 296 295 298 300 300 297 297 297 296 303
314 315 315 316 315 315 308 299 299 301 294 305 304 305 308 311 305 309 313 304 302 297 298 295 292 299 302 300 298 299 297 297 303 301 299 294 296 299 300 302 300 299 298 299 298
314 314 314 315 315 311 304 302 308 305 293 298 303 302 303 307 304 304 309 304 299 294 296 293 295 299 299 298 296 297 298 299 300 294 291 289 291 293 297 299 301 301 302 303 301
314 314 313 314 307 306 300 306 306 304 287 289 296 301 304 306 300 309 311 305 299 295 294 294 298 298 298 297 298 293 302 301 294 292 287 292 284 290 295 297 300 302 303 302 302
308 313 313 312 302 300 303 305 302 297 267 290 297 306 303 299 300 303 311 304 296 295 295 292 293 295 294 296 300 296 301 301 295 291 287 287 282 286 291 294 297 300 302 302 303
307 313 312 306 303 303 304 302 296 274 268 287 296 296 296 298 299 302 304 307 304 296 296 294 300 298 298 300 301 303 299 294 293 290 283 288 285 285 290 294 295 298 300 302 302
308 312 308 305 298 304 301 292 272 265 281 283 288 293 293 292 294 298 297 293 292 287 288 294 295 299 301 295 301 299 293 282 282 281 281 287 286 290 294 297 297 297 296 296 298
306 310 306 304 305 301 296 279 261 268 275 289 289 290 290 292 293 294 294 290 292 293 290 287 284 294 299 297 295 295 292 283 278 278 280 282 281 286 296 302 303 297 294 293 294
305 305 301 304 304 300 288 265 268 272 281 284 288 286 288 291 291 292 293 289 292 296 289 286 286 296 297 299 299 292 290 294 283 274 277 281 284 290 294 294 292 293 294 293 294
302 299 298 305 303 296 282 274 276 287 286 285 279 287 285 288 288 289 286 292 293 297 297 291 283 293 293 297 297 296 296 288 285 274 273 278 280 285 289 292 293 292 292 293 293
295 291 300 304 300 288 277 274 282 289 289 282 281 282 286 285 289 288 288 292 296 296 298 294 288 287 292 291 291 289 291 291 290 283 278 276 281 289 291 292 291 291 293 293 293
289 285 300 301 285 280 275 281 288 286 288 287 286 284 284 284 284 288 289 292 298 298 292 295 288 284 287 292 296 295 292 293 287 282 280 281 281 290 289 291 292 291 292 291 291
288 290 300 296 280 280 282 284 285 285 285 285 283 286 288 285 282 287 290 295 297 296 294 294 286 280 282 288 290 290 291 294 291 285 281 279 282 289 288 288 288 290 291 291 291
290 284 289 290 281 283 281 279 280 287 286 287 286 287 286 284 287 285 287 292 297 297 299 297 286 283 281 285 288 287 290 292 292 282 281 285 284 285 288 289 289 290 291 292 292
287 284 286 281 280 283 283 282 280 281 286 287 284 285 285 281 284 283 286 288 292 294 297 294 284 286 286 287 289 289 289 290 289 291 285 288 287 289 288 289 289 291 292 292 292
285 285 281 285 285 282 284 280 280 283 284 283 282 285 286 282 284 281 287 291 291 295 294 296 285 287 285 287 288 285 289 291 290 291 291 288 286 292 290 289 288 290 291 291 291
290 288 287 286 283 278 279 280 282 284 285 286 286 284 285 286 290 291 292 293 293 293 292 290 286 284 280 283 284 280 286 289 291 292 292 288 293 294 292 292 292 291 290 291 292

GFSSW_sfc_thetae_156.txt.gz
Theta_e
318 320 320 321 321 321 320 321 323 323 325 325 328 327 327 329 326 321 312 321 325 331 325 322 322 317 315 310 310 306 298 295 298 299 301 301 301 302 306 307 309 314 317 319 325
320 320 319 319 321 322 321 321 323 324 324 324 327 327 326 327 319 314 323 331 332 332 322 321 315 315 308 306 308 301 295 298 306 305 301 301 301 302 304 305 307 315 321 325 323
320 319 320 320 320 321 321 322 323 323 323 322 326 326 325 323 312 313 327 330 334 331 320 317 317 314 307 306 305 303 297 303 306 305 303 304 301 303 303 301 308 313 319 323 321
319 319 319 320 320 320 320 322 323 322 323 322 325 325 324 319 299 314 327 330 333 321 317 314 312 309 305 303 305 300 303 304 306 304 301 301 302 301 303 305 308 317 323 323 321
318 318 318 319 320 319 320 321 322 322 322 322 322 324 319 310 308 316 325 329 324 319 315 312 311 307 304 305 304 301 303 306 308 305 300 300 298 300 300 304 305 321 323 323 322
318 318 318 318 319 320 320 321 321 321 321 320 320 324 314 304 317 316 319 325 319 315 312 313 311 311 305 304 307 307 306 307 308 305 300 297 296 297 299 301 312 321 320 322 323
318 317 317 318 319 319 320 320 321 321 321 321 320 319 310 307 316 316 318 316 318 314 309 313 315 311 309 304 309 308 303 307 308 302 297 297 294 295 300 299 308 318 319 319 321
317 317 317 317 318 319 319 319 320 321 321 321 319 315 304 319 316 315 317 314 316 317 315 316 315 310 307 306 303 303 303 298 307 301 298 296 291 302 300 298 298 307 316 319 319
316 316 316 317 317 317 318 318 319 320 321 320 312 307 300 319 310 314 315 313 314 316 316 318 315 306 307 298 296 298 294 296 301 302 298 295 293 301 304 297 297 295 304 315 318
316 315 316 317 317 316 317 316 317 315 316 316 312 301 306 305 313 313 315 315 312 312 310 309 307 302 300 297 291 292 293 296 297 303 297 293 293 299 300 298 297 297 297 304 312
316 315 316 316 316 316 313 305 297 295 303 302 302 300 305 311 316 311 313 311 311 308 300 304 298 295 298 300 300 298 296 296 301 305 298 297 294 297 300 298 298 296 294 296 302
309 315 316 316 316 316 307 297 296 298 292 301 305 305 308 312 305 309 313 305 303 298 299 297 294 300 302 301 300 299 296 295 301 304 300 296 294 299 298 298 301 301 298 297 299
311 314 315 315 315 311 303 300 307 304 291 296 302 302 304 306 303 304 309 306 301 297 297 295 298 301 300 298 296 297 295 297 297 299 298 293 294 296 296 300 302 303 305 302 300
310 309 315 314 307 305 302 306 306 301 281 285 295 300 304 305 297 311 311 305 300 296 297 297 299 298 297 296 298 293 300 298 299 293 291 294 290 293 296 297 299 301 303 303 302
309 309 314 312 302 301 304 306 302 294 262 284 294 306 303 298 301 304 311 305 297 296 296 292 294 295 295 297 300 295 301 299 299 294 290 287 285 290 290 292 296 299 302 304 304
308 309 313 307 304 304 306 302 295 275 267 287 295 295 296 297 298 304 304 308 305 296 297 295 300 299 298 300 301 301 299 295 294 291 284 292 285 286 288 293 294 297 299 302 302
306 306 307 306 298 306 302 295 275 266 279 284 289 294 293 293 295 298 297 296 292 287 288 293 293 297 300 296 300 299 293 284 282 283 284 287 284 291 294 296 295 296 297 298 300
306 306 305 306 306 303 298 280 265 268 273 289 290 291 288 292 293 295 295 293 294 293 289 286 285 294 298 296 294 295 292 285 279 280 283 285 282 288 296 301 302 297 297 294 295
307 303 300 304 306 302 289 275 271 271 280 286 289 287 288 291 292 292 292 291 292 293 289 287 286 297 298 298 298 293 289 293 283 277 278 281 284 289 293 293 293 294 295 293 293
300 298 293 305 304 297 284 275 275 280 285 285 279 285 285 287 288 290 289 295 292 295 298 292 286 293 295 298 298 295 297 288 285 277 273 278 279 284 289 292 293 291 291 292 292
296 288 297 306 301 290 279 276 281 287 287 281 279 285 288 287 290 288 288 292 296 294 298 295 290 287 293 292 292 291 291 291 291 284 277 275 280 288 291 291 292 292 292 292 292
287 283 300 302 286 285 279 281 288 286 288 286 284 283 286 285 285 289 288 291 296 297 292 297 289 284 286 293 296 296 293 292 287 281 281 280 281 290 289 288 290 292 291 291 291
286 289 300 297 280 279 281 282 285 285 284 284 283 285 287 284 281 285 287 296 296 296 295 295 285 281 283 288 291 291 292 295 291 286 282 279 284 289 287 287 288 290 290 290 289
286 283 288 290 284 282 280 278 280 286 285 286 285 286 284 282 285 284 285 293 296 297 298 297 286 284 282 285 288 288 291 293 292 285 286 286 286 286 287 288 288 289 289 289 290
285 284 285 280 282 283 282 281 280 281 285 285 284 283 282 278 282 282 286 287 292 295 295 294 284 286 287 286 288 289 291 291 290 291 286 289 285 290 288 289 289 289 290 291 290
285 285 284 282 284 281 283 280 281 282 283 282 281 284 284 280 281 280 284 286 287 291 290 292 284 286 285 288 286 284 290 292 291 292 291 290 286 291 292 287 287 289 290 290 291
290 286 286 285 282 280 278 280 282 284 284 286 284 283 283 285 287 288 290 289 290 291 290 290 286 284 282 287 284 280 286 290 291 292 292 288 293 291 291 289 289 289 290 291 291

GFSSW_sfc_thetae_159.txt.gz
Theta_e
319 319 319 321 321 321 320 320 320 323 324 324 325 327 327 329 327 321 314 321 325 333 325 321 322 318 318 315 315 311 298 295 298 299 301 300 299 302 307 307 307 312 316 319 321
320 320 318 319 321 321 321 321 321 323 324 324 325 327 326 327 318 314 322 328 331 331 321 320 315 317 310 309 310 305 296 298 304 304 301 302 300 302 304 306 307 313 319 321 322
320 320 320 320 320 321 322 322 322 323 323 323 323 326 325 323 313 313 328 330 333 330 322 319 320 314 308 309 307 304 299 302 301 305 303 300 300 303 303 301 307 311 316 319 321
320 320 320 320 320 320 320 321 322 323 322 322 322 325 324 316 297 312 328 330 333 322 319 316 314 310 304 304 306 303 306 306 306 307 307 300 302 301 302 305 308 312 320 319 320
319 319 319 319 319 320 320 320 321 321 321 322 322 324 318 309 308 316 322 327 326 318 316 314 312 310 304 304 304 303 305 307 308 308 308 302 297 299 300 303 302 317 321 318 318
318 318 318 318 319 319 319 319 321 321 322 322 322 322 313 302 316 316 323 323 317 316 315 315 313 312 307 305 305 305 305 306 308 308 308 305 301 295 299 302 310 318 319 320 319
318 318 318 318 319 319 319 320 320 320 321 321 320 316 309 306 315 313 321 319 317 315 312 314 315 312 308 304 309 307 304 306 308 308 306 301 294 293 300 297 310 315 318 319 320
318 317 317 317 318 319 319 320 320 320 320 320 320 311 302 314 313 315 315 313 315 317 313 314 317 312 309 307 304 302 302 296 305 308 309 298 292 298 301 296 298 311 313 317 320
317 317 317 317 317 318 318 319 319 319 320 319 310 307 300 317 309 313 314 312 314 315 316 317 314 308 305 299 297 296 290 293 299 307 307 299 292 299 303 296 297 298 311 316 318
317 316 317 317 317 317 318 318 317 316 315 315 312 301 303 303 310 311 312 314 312 312 310 309 306 301 301 299 290 292 292 295 297 302 303 299 295 298 299 300 297 297 295 309 315
316 316 316 316 317 317 314 307 299 299 306 301 301 300 302 309 314 309 312 312 312 307 299 304 298 294 298 300 299 297 295 294 299 304 302 301 301 303 301 297 297 298 296 296 304
316 316 316 316 317 316 309 298 298 298 295 303 304 304 307 309 304 308 313 305 304 298 301 298 293 299 301 301 300 298 294 293 299 304 302 301 299 303 303 302 300 301 301 296 298
312 315 316 316 316 311 304 300 304 302 291 296 301 302 303 307 301 304 309 305 301 297 298 294 296 301 300 299 297 297 295 293 295 299 302 298 296 300 304 300 300 301 302 305 302
313 310 315 315 308 306 301 304 306 298 276 283 295 299 304 304 298 308 310 305 300 296 297 297 300 298 298 296 298 293 301 299 298 295 291 298 289 297 301 302 303 302 303 304 306
312 312 308 315 305 301 303 306 300 291 262 283 293 303 301 297 300 302 311 305 298 297 297 293 296 296 296 297 300 296 300 298 297 295 292 289 286 292 298 296 300 301 303 306 307
311 311 311 311 305 305 307 302 294 272 262 281 293 294 294 295 297 302 305 307 305 298 298 296 300 300 299 301 301 302 297 296 295 292 285 291 288 290 291 292 297 300 301 303 305
309 310 307 309 299 307 305 295 274 264 277 285 287 291 291 291 293 296 296 296 292 286 289 293 294 298 300 296 300 299 294 284 282 282 283 289 288 292 295 294 295 297 299 297 299
309 309 307 305 307 307 300 285 266 270 273 288 289 290 286 291 292 293 292 291 296 293 288 287 284 294 299 295 293 295 294 287 280 279 281 285 284 289 297 300 303 301 301 296 295
308 301 299 302 305 305 292 277 274 273 279 287 290 285 286 289 289 292 291 290 295 295 288 287 287 297 298 297 298 294 290 293 285 277 277 282 284 288 293 293 294 293 296 297 297
300 296 293 303 304 300 286 278 277 280 286 288 281 287 283 286 287 289 289 294 293 296 298 293 286 293 295 298 298 295 296 287 286 278 275 279 279 285 287 293 300 293 291 293 294
298 289 295 303 303 292 281 279 279 283 287 283 280 285 285 286 288 287 288 292 296 294 297 295 291 288 293 292 292 292 290 292 290 285 281 275 281 287 293 293 291 293 293 293 292
289 283 296 302 286 286 282 280 288 284 286 284 283 284 288 288 287 288 288 290 295 296 291 296 289 284 288 293 297 296 293 293 287 283 281 280 283 289 290 290 289 289 290 291 291
286 289 297 299 282 282 285 282 285 284 284 284 283 285 286 288 285 289 290 295 295 296 293 295 286 282 283 289 291 290 294 295 292 286 283 282 285 291 286 286 288 289 290 290 287
288 282 288 291 285 284 281 281 280 285 284 285 284 285 284 284 286 286 288 293 295 296 298 298 287 283 282 282 289 288 291 293 292 286 286 286 287 290 289 287 288 289 289 289 289
286 283 285 281 283 284 284 281 281 280 284 284 283 283 283 279 282 282 285 287 289 296 297 294 283 286 287 287 287 289 290 292 289 291 287 290 290 293 295 294 290 288 289 289 289
284 284 285 285 285 284 285 281 281 281 282 281 281 282 282 281 281 280 284 285 286 292 293 290 283 286 284 288 287 282 289 292 292 292 292 292 291 294 293 292 286 289 288 289 290
290 290 286 286 284 282 281 280 281 283 284 283 283 282 281 282 286 286 287 287 287 287 286 287 284 283 280 285 286 282 286 289 292 293 293 288 294 293 291 289 291 290 289 290 291

GFSSW_sfc_thetae_162.txt.gz
Theta_e
320 319 319 321 322 320 320 319 319 321 323 322 322 326 326 327 328 322 317 324 326 332 327 321 320 317 318 313 318 311 297 295 297 298 299 303 298 300 305 308 310 314 313 317 321
321 321 319 320 321 321 321 320 320 321 323 323 323 325 326 327 320 316 324 328 332 333 320 319 314 315 309 310 310 306 299 298 302 303 299 300 299 300 301 304 307 312 317 319 320
321 320 320 320 321 321 321 322 322 322 323 324 323 324 325 324 313 312 329 329 331 329 322 319 318 312 306 307 307 304 301 304 306 306 307 301 300 301 299 300 307 308 313 317 318
320 320 320 320 320 321 321 322 322 322 322 322 322 323 323 315 296 311 323 331 332 322 319 317 315 310 303 304 306 299 306 307 309 307 306 305 301 296 300 304 306 309 317 317 318
320 319 319 319 320 320 320 320 321 322 322 322 322 322 318 309 307 315 322 329 326 318 317 314 312 311 305 304 305 300 306 308 310 307 307 307 304 299 298 303 304 310 317 317 318
319 319 319 319 319 320 320 320 320 321 321 321 321 321 312 301 316 315 321 322 319 316 315 316 312 311 307 303 304 304 306 306 308 307 308 305 305 297 298 300 304 314 316 316 318
319 318 318 318 318 319 319 320 319 321 320 320 320 315 307 305 316 314 320 318 317 316 314 314 315 311 307 303 308 307 301 304 305 307 305 305 302 296 301 298 300 310 315 315 316
318 318 318 318 318 318 319 319 320 321 320 320 319 309 300 311 315 314 314 313 315 314 313 316 318 311 309 306 305 303 302 294 302 307 307 305 297 302 304 297 296 301 310 315 317
316 317 317 317 317 318 318 318 319 319 319 319 311 307 299 315 308 312 312 312 312 314 315 317 315 308 305 301 297 299 292 293 297 307 305 301 295 303 304 299 297 295 303 312 316
316 316 317 317 317 317 317 317 317 315 313 313 311 301 303 301 308 311 310 313 311 311 309 309 307 302 301 298 290 293 294 293 294 302 303 298 296 302 306 303 298 296 294 306 313
314 315 317 317 317 318 315 306 300 299 304 298 301 299 301 308 311 308 311 311 310 307 299 304 298 292 297 300 299 296 296 295 298 303 299 298 299 303 306 305 301 299 297 295 301
314 315 316 317 317 318 309 298 297 298 293 301 304 302 306 308 302 307 312 302 303 298 301 298 293 300 299 298 299 298 294 293 298 302 299 298 297 302 305 305 306 306 303 298 298
313 314 316 317 316 313 304 300 303 300 290 295 302 302 303 306 300 303 308 304 298 297 298 294 296 301 299 298 296 296 294 294 294 298 299 299 296 298 303 305 306 306 307 307 304
311 312 314 316 310 307 301 305 304 295 277 285 294 300 303 303 295 307 310 303 299 295 297 296 299 297 297 296 297 291 298 298 297 294 290 298 287 294 298 301 303 305 306 305 305
310 311 314 316 308 302 303 306 301 290 262 283 292 304 302 297 298 301 308 305 296 294 295 293 296 295 294 295 300 295 300 299 297 294 292 292 289 290 297 296 299 303 306 306 306
309 311 314 313 307 306 307 304 296 276 264 278 294 294 294 295 297 301 302 304 303 297 295 293 298 299 298 300 300 301 298 297 296 294 285 291 290 290 295 295 297 302 305 306 307
308 309 307 311 302 307 306 298 279 271 278 282 285 291 290 291 293 294 295 295 291 286 287 293 293 298 299 294 299 298 293 284 282 282 282 289 288 290 298 294 296 298 299 300 301
307 307 307 307 309 307 302 287 274 273 273 286 287 289 286 289 290 292 291 290 295 293 287 286 284 294 299 296 293 294 293 286 278 279 283 287 285 289 298 301 304 302 302 301 296
306 303 302 305 308 306 292 279 277 275 279 286 287 283 284 287 287 289 290 290 293 293 288 287 287 296 297 298 298 294 290 295 285 279 280 283 284 291 294 294 294 296 296 299 299
299 297 298 304 306 300 286 282 277 281 285 287 280 284 280 283 284 286 288 292 291 295 297 292 287 294 296 297 298 296 296 287 286 279 275 280 281 285 290 294 295 298 295 295 296
296 288 297 304 300 292 281 282 280 281 287 282 280 284 282 283 285 285 285 290 293 293 296 294 290 288 293 292 291 291 290 292 290 286 278 277 282 288 292 295 294 293 293 293 294
287 283 298 301 285 285 283 281 286 285 287 285 283 283 283 284 283 285 285 288 294 296 292 296 288 285 288 292 298 296 293 293 286 282 281 279 284 290 289 290 290 290 291 290 291
285 287 297 297 280 282 285 283 285 285 284 284 284 285 286 287 283 285 288 293 294 295 292 295 286 282 284 288 291 291 294 294 293 287 284 280 285 294 290 288 288 288 290 290 289
287 282 286 289 286 285 282 282 282 286 284 284 284 285 286 286 284 286 287 291 294 295 298 297 288 285 281 284 289 288 291 293 292 286 286 286 288 292 293 291 294 291 289 289 290
286 283 285 281 283 285 285 283 282 282 283 284 283 285 284 283 282 285 288 287 290 295 296 294 285 288 288 286 287 287 290 291 290 290 287 289 289 293 295 295 298 294 291 289 289
284 284 286 284 286 284 285 281 282 281 282 281 282 283 281 283 284 282 287 287 287 291 293 291 284 285 284 288 288 285 286 290 292 292 292 292 291 298 298 298 298 296 291 289 290
289 288 286 286 284 283 280 282 283 283 283 283 283 283 281 282 284 287 286 287 287 288 290 287 285 283 280 285 284 282 286 287 289 293 293 289 293 298 297 298 298 299 298 291 291